Location: Vihti�l�
(61.3833°N, 23.0667°E)
Time: 05:11:48
(UTC+00:00)

Cosmos 2297 Rocket - Pass Details

Date: 29 November 2020
Orbit: 840 x 843 km, 71.0° (Epoch: 22 January)

Event Time Altitude Azimuth Distance (km) Brightness Sun altitude
Exits shadow 01:06:19 23° 57° (ENE) 1,734 4.3 -40.6°
Drops below altitude 10° 01:08:29 10° 46° (NE) 2,476 5.3 -40.3°
Sets 01:11:01 0° 41° (NE) 3,415 6.2 -40.1°
